CAPE
1 1 nan nan nan nan nan 0 2 2 0 4 3 3 0 nan nan nan nan nan nan nan nan nan nan nan nan 7 12 12 10 6 5 5 6 4 2 2 nan nan nan nan nan nan nan nan nan nan nan nan nan nan nan nan nan nan nan nan nan nan nan nan nan nan nan nan nan nan nan nan 22 153 281 281 323 530 749 749 778 655 655 472 331 244 244 209
2 1 nan nan nan nan nan 0 0 0 1 9 13 13 7 nan nan nan nan nan nan nan nan nan nan nan nan 0 10 10 9 6 6 6 7 5 1 1 nan nan nan nan nan nan nan nan nan nan nan nan nan nan nan nan nan nan nan nan nan nan nan nan nan nan nan nan nan nan nan nan 9 111 257 257 380 595 783 783 748 603 603 383 299 220 220 185
0 0 0 nan nan nan nan nan nan nan nan 18 32 32 15 4 nan nan nan nan nan nan nan nan nan nan nan nan 9 9 7 4 5 5 9 6 1 1 nan nan nan nan nan nan nan nan nan nan nan nan nan nan nan nan nan nan nan nan nan nan nan nan nan nan nan nan nan nan nan nan 1 73 260 260 383 585 679 679 595 353 353 270 214 197 197 162
1 0 0 0 0 nan nan nan nan nan 4 40 46 46 25 15 2 2 nan nan nan nan nan nan nan nan nan nan 2 2 8 4 3 3 8 7 1 1 nan nan nan nan nan nan nan nan nan nan nan nan nan nan nan nan nan nan nan nan nan nan nan nan nan nan nan nan nan nan nan nan nan 14 131 131 223 278 276 276 237 230 230 205 208 174 174 156
3 2 1 1 1 0 nan nan nan nan 33 58 40 40 30 18 9 9 0 nan nan nan nan nan nan nan nan nan nan nan 6 6 3 3 7 8 0 0 nan nan nan nan nan nan nan nan nan nan nan nan nan nan nan nan nan nan nan nan nan nan nan nan nan nan nan nan nan nan nan nan nan nan nan nan 26 45 78 78 147 240 240 255 218 139 139 116
9 5 1 1 1 2 0 2 19 19 44 48 33 33 28 24 17 17 2 nan nan nan nan nan nan nan nan nan 0 0 7 10 3 3 4 9 3 3 nan nan nan nan nan nan nan nan nan nan nan nan nan nan nan nan nan nan nan nan nan nan nan nan nan nan nan nan nan nan nan nan nan nan nan nan nan nan 3 3 58 250 250 285 207 107 107 82
16 5 0 2 2 3 3 12 16 16 16 20 22 22 34 31 18 18 3 1 1 nan nan nan nan nan nan nan 0 0 11 12 3 3 1 6 4 4 nan nan nan nan nan nan nan nan nan nan nan nan nan nan nan nan nan nan nan nan nan nan nan nan nan nan nan nan nan nan nan nan nan nan nan nan nan nan nan nan nan 82 82 177 159 70 70 70
28 13 5 3 3 3 4 nan nan nan nan 0 3 3 9 7 3 3 3 2 2 nan nan nan nan nan nan nan nan nan 15 7 0 0 3 9 6 6 nan nan nan nan 0 0 0 1 0 nan nan nan nan nan nan nan nan nan nan nan nan nan nan nan nan nan nan nan nan nan nan nan nan nan nan nan nan nan nan nan nan nan nan nan nan nan nan 47
28 25 2 1 1 nan 0 nan nan nan nan 2 6 6 7 4 5 5 7 2 2 1 0 nan nan nan nan nan 0 0 17 18 6 6 9 22 15 15 1 nan nan nan nan 1 1 1 1 nan nan nan nan nan nan nan nan nan nan nan nan nan nan nan nan nan nan nan nan nan nan nan nan nan nan nan nan nan nan nan nan nan nan nan nan nan nan 10
16 25 19 nan nan nan nan nan nan nan nan 27 39 39 37 31 19 19 7 2 2 2 2 nan nan nan nan nan nan nan 20 30 24 24 22 29 10 10 nan nan nan nan nan 0 0 0 0 nan nan nan nan nan nan nan nan nan nan nan nan nan nan nan nan nan nan nan nan nan nan nan nan nan nan nan nan nan nan nan nan nan nan nan nan nan nan 0
7 9 17 16 16 nan 1 8 40 40 13 7 15 15 54 45 35 35 10 1 1 1 0 nan nan nan nan nan nan nan 16 33 28 28 28 32 7 7 nan nan nan nan nan nan nan nan nan nan nan nan nan nan nan nan nan nan nan nan nan nan nan nan nan nan nan nan nan nan nan nan nan nan nan nan nan nan nan nan nan nan nan nan nan nan nan nan
4 2 6 15 15 19 9 7 5 5 3 2 2 2 4 9 11 11 12 15 15 3 0 0 0 nan nan nan nan nan 8 34 27 27 34 46 28 28 nan nan nan nan nan nan nan nan nan nan nan nan nan nan nan nan nan nan nan nan nan nan nan nan nan nan nan nan nan nan nan nan nan nan nan nan nan nan nan nan nan nan nan nan nan nan nan nan
3 2 2 4 4 1 0 1 1 1 1 3 3 3 2 3 3 3 5 16 16 26 5 6 6 nan nan nan 0 0 6 36 25 25 30 49 50 50 0 nan nan nan 1 1 1 1 nan nan nan nan nan nan nan nan nan nan nan nan nan nan nan nan nan nan nan nan nan nan nan nan nan nan nan nan nan nan nan nan nan nan nan nan nan nan nan nan
2 2 1 1 1 1 1 2 2 2 3 4 7 7 8 8 6 6 5 6 6 34 40 19 19 6 nan nan 0 0 11 32 24 24 22 42 50 50 9 0 0 2 3 3 3 2 nan nan nan 0 nan nan nan nan nan nan nan nan nan nan nan nan nan nan nan nan nan nan nan nan nan nan nan nan nan nan nan nan nan nan nan nan nan nan nan nan
3 3 1 1 1 1 1 2 3 3 3 5 7 7 9 8 7 7 5 4 4 7 56 75 75 33 3 nan nan nan 17 31 19 19 15 27 33 33 13 0 0 4 4 3 3 2 0 0 0 1 0 nan nan nan nan nan nan nan nan nan nan nan nan nan nan nan nan nan nan nan nan nan nan nan nan nan nan nan nan nan nan nan nan nan nan nan
3 3 1 1 1 0 1 3 3 3 4 4 4 4 5 5 6 6 5 4 4 5 31 87 87 58 6 nan nan nan 13 29 16 16 11 14 11 11 3 3 3 3 4 3 3 3 2 2 2 1 1 nan nan nan nan nan nan nan nan nan nan nan nan nan nan nan nan nan nan nan nan nan nan nan nan nan nan nan nan nan nan nan nan nan nan nan
4 3 2 1 1 1 1 2 3 3 4 3 4 4 4 5 6 6 7 6 6 6 29 95 95 56 11 nan nan nan 13 44 22 22 13 3 nan nan nan 3 3 3 4 3 3 3 3 2 2 2 1 nan nan nan nan nan nan nan nan nan nan nan nan nan nan nan nan nan nan nan nan nan nan nan nan nan nan nan nan nan nan nan nan nan nan nan
3 2 3 2 2 1 2 3 3 3 6 5 4 4 4 7 8 8 7 6 6 5 11 87 87 64 12 nan nan nan 5 62 58 58 25 nan nan nan nan 0 0 5 4 3 3 3 5 3 3 2 nan nan nan nan nan nan nan nan nan nan nan nan nan nan nan nan nan nan nan nan nan nan nan nan nan nan nan nan nan nan nan nan nan nan nan nan
1 3 3 2 2 2 3 3 3 3 5 6 6 6 3 5 6 6 7 7 7 7 9 39 39 58 9 nan nan nan nan 29 77 77 49 1 nan nan nan 0 0 5 3 2 2 2 4 4 4 nan nan nan nan nan nan nan nan nan nan nan nan nan nan nan nan nan nan nan nan nan nan nan nan nan nan nan nan nan nan nan nan nan nan nan nan nan
1 3 3 3 3 2 4 6 5 5 7 10 9 9 4 4 4 4 4 7 7 7 8 11 11 40 18 nan nan nan nan 1 53 53 43 nan nan nan nan 1 1 6 4 2 2 2 5 5 5 0 nan nan nan nan nan nan nan nan nan nan nan nan nan nan nan nan nan nan nan nan nan nan nan nan nan nan nan nan nan nan nan nan nan nan nan nan
2 2 4 2 2 3 5 6 8 8 13 16 10 10 7 4 3 3 4 5 5 4 6 6 6 7 6 6 3 3 nan 3 11 11 9 nan nan nan nan nan nan 6 3 nan nan 0 4 6 6 3 nan nan nan nan nan nan nan nan nan nan nan nan nan nan nan nan nan nan nan nan nan nan nan nan nan nan nan nan nan nan nan nan nan nan nan nan
1 2 1 2 2 3 12 12 15 15 17 14 9 9 7 3 3 3 4 4 4 3 3 3 3 3 3 3 3 3 8 2 nan nan nan nan nan nan nan nan nan 5 2 nan nan nan 4 5 5 3 nan nan nan nan nan nan nan nan nan nan nan nan nan nan nan nan nan nan nan nan nan nan nan nan nan nan nan nan nan nan nan nan nan nan nan nan
2 2 2 3 3 5 15 11 10 10 18 17 16 16 11 5 3 3 3 3 3 3 3 3 3 2 2 3 4 4 6 nan nan nan nan nan nan nan nan nan nan 3 1 nan nan nan 7 5 5 1 nan nan nan nan nan nan nan nan nan nan nan nan nan nan nan nan nan nan nan nan nan nan nan nan nan nan nan nan nan nan nan nan nan nan nan nan
2 3 3 3 3 5 13 15 10 10 14 18 21 21 17 8 5 5 3 3 3 2 3 3 3 1 1 2 3 3 nan nan nan nan nan nan nan nan nan nan nan 2 nan nan nan nan 6 3 3 1 nan nan nan nan nan nan nan nan nan nan nan nan nan nan nan nan nan nan nan nan nan nan nan nan nan nan nan nan nan nan nan nan nan nan nan nan
3 4 7 7 7 17 17 13 20 20 16 18 19 19 11 6 4 4 5 5 5 5 3 2 2 1 nan 1 1 1 nan nan nan nan nan nan nan nan nan nan nan 3 nan nan nan nan 2 2 2 0 nan nan nan nan nan nan nan nan nan nan nan nan nan nan nan nan nan nan nan nan nan nan nan nan nan nan nan nan nan nan nan nan nan nan nan nan
20 15 15 24 24 48 43 41 43 43 35 21 15 15 2 1 1 1 5 4 4 4 4 4 4 2 1 2 nan nan nan nan nan nan nan nan nan nan nan nan nan nan nan nan nan nan nan 0 0 nan nan nan nan nan nan nan nan nan nan nan nan nan nan nan nan nan nan nan nan nan nan nan nan nan nan nan nan nan nan nan nan nan nan nan nan nan
40 42 48 49 49 45 37 32 33 33 47 43 18 18 1 nan 0 0 1 1 1 1 1 2 2 2 4 3 nan nan nan nan nan nan 0 2 nan nan nan nan nan nan nan nan nan nan nan nan nan nan nan nan nan nan nan nan nan nan nan nan nan nan nan nan nan nan nan nan nan nan nan nan nan nan nan nan nan nan nan nan nan nan 0 0 0 4
29 34 32 32 32 30 26 23 25 25 35 43 42 42 9 0 nan nan nan nan nan 0 1 2 2 2 8 5 nan nan nan nan nan nan 0 1 nan nan nan nan nan nan nan nan nan nan nan nan nan nan nan nan nan nan nan nan nan nan nan nan nan nan nan nan nan nan nan nan nan nan nan nan nan nan nan nan nan nan 0 0 0 0 0 nan nan nan
18 21 20 23 23 23 20 16 19 19 29 36 36 36 13 0 nan nan nan 0 0 0 1 2 2 2 6 2 nan nan nan nan nan nan 0 1 nan nan nan nan nan nan nan nan nan nan nan nan nan nan nan nan nan nan nan nan nan nan nan nan nan nan nan nan nan nan nan nan nan nan nan nan nan nan nan nan 0 0 2 2 2 2 0 nan nan nan
2 7 8 12 12 13 9 3 12 12 22 27 25 25 15 2 0 0 0 1 1 0 1 2 2 3 4 8 nan nan nan nan nan nan nan nan nan nan nan nan nan nan nan nan nan nan nan nan nan nan nan nan nan nan nan nan nan nan nan nan nan nan nan nan nan nan nan nan nan nan nan nan nan nan nan 1 2 2 2 1 1 0 nan nan nan nan
nan nan nan nan nan nan nan nan 3 3 13 19 16 16 7 1 0 0 0 0 0 1 1 1 1 1 2 4 2 2 nan nan nan nan nan nan nan nan nan nan nan nan nan nan nan nan nan nan nan nan nan nan nan nan nan nan nan nan nan nan nan nan nan nan nan nan nan nan nan nan nan nan nan nan nan 0 2 2 2 1 1 nan nan nan nan nan
nan nan nan nan nan nan nan nan nan nan nan nan nan nan 2 3 1 1 nan nan nan 0 0 1 1 1 1 3 3 3 1 nan 0 0 nan nan nan nan nan nan nan nan nan nan nan nan nan nan nan nan nan nan nan nan nan nan nan nan nan nan nan nan nan nan nan nan nan 0 0 0 nan 0 0 0 1 1 2 2 2 2 2 nan nan nan nan nan
nan nan nan nan nan nan nan nan nan nan nan nan nan nan nan nan 2 2 0 nan nan nan 0 1 1 0 0 1 2 2 nan nan nan nan nan nan nan nan nan nan nan nan nan nan nan nan nan nan nan nan nan nan nan nan nan nan nan nan nan nan nan nan nan nan nan nan nan nan 0 0 1 2 1 1 1 3 3 3 3 1 1 nan nan nan nan nan
nan nan nan nan nan nan nan nan nan nan nan nan nan nan nan nan nan nan 0 nan nan nan nan 0 0 0 1 0 1 1 0 nan 1 1 1 nan nan nan nan nan nan nan nan nan nan nan nan nan nan nan nan nan nan nan nan nan nan nan nan nan nan nan nan nan nan nan nan nan nan nan nan nan 3 3 1 3 3 3 3 1 1 nan nan nan nan nan
nan nan nan nan nan nan nan nan nan nan nan nan nan nan nan nan nan nan nan nan nan nan nan nan nan nan 1 0 nan nan 0 nan 0 0 7 nan nan nan nan nan nan nan nan nan nan nan nan nan nan nan nan nan nan nan nan nan nan nan nan nan nan nan nan nan nan nan nan nan nan nan nan nan nan nan 1 2 3 3 3 3 3 1 nan nan nan nan
nan nan nan nan nan nan nan nan nan nan nan nan nan nan nan nan nan nan nan nan nan nan 0 nan nan 0 0 1 nan nan nan nan nan nan 6 nan nan nan nan nan nan nan nan nan nan nan nan nan nan nan nan nan nan nan nan nan nan nan nan nan nan nan nan nan nan nan nan nan nan nan nan nan 0 0 1 7 7 7 4 4 4 3 1 nan nan nan
nan nan nan nan nan nan nan nan nan nan nan nan nan nan nan nan nan nan nan nan nan nan nan 0 0 0 2 1 nan nan nan nan nan nan 2 0 nan nan nan nan nan nan nan nan nan nan nan nan nan nan nan nan nan nan nan nan nan nan nan nan nan nan nan nan nan nan nan nan nan nan nan 0 2 2 7 12 8 8 8 6 6 3 1 0 0 nan
nan nan nan nan nan nan nan nan nan nan nan nan nan nan nan nan nan nan nan nan nan nan nan nan nan nan 1 2 nan nan nan nan nan nan 1 nan nan nan nan nan nan nan nan nan nan nan nan nan nan nan nan nan nan nan nan nan nan nan nan nan nan nan nan nan nan nan nan nan 1 1 2 1 1 1 1 0 nan nan nan nan nan nan nan nan nan nan
nan nan nan nan nan nan nan nan nan nan nan nan nan nan nan nan nan nan nan nan nan nan nan nan nan nan nan nan nan nan nan nan nan nan 0 nan nan nan nan nan nan nan nan nan nan nan nan nan nan nan nan nan nan nan nan nan nan nan nan nan nan nan nan nan nan nan nan nan 0 0 nan nan nan nan nan nan nan nan nan nan nan nan nan nan nan nan
nan nan nan nan nan nan nan nan nan nan nan nan nan nan nan nan nan nan nan nan nan nan nan nan nan nan nan 0 nan nan nan nan nan nan nan nan nan nan nan nan nan nan nan nan nan nan nan nan nan nan nan nan nan nan nan nan nan nan nan nan nan nan nan nan nan nan nan nan nan nan nan nan nan nan nan nan nan nan nan nan nan nan nan nan nan nan
nan nan nan nan nan nan nan nan nan nan nan nan nan nan nan nan nan nan nan nan nan nan nan nan nan nan nan nan nan nan nan nan nan nan nan nan nan nan nan nan nan nan nan nan nan nan nan nan nan nan nan nan nan nan nan nan nan nan nan nan nan nan nan nan nan nan nan nan nan nan nan nan nan nan nan nan nan nan nan nan nan nan nan nan nan nan
1 nan nan nan nan nan nan nan nan nan nan nan nan nan nan nan nan nan nan nan nan nan nan nan nan nan nan nan nan nan nan nan nan nan nan nan nan nan nan nan nan nan nan nan nan nan nan nan nan nan nan nan nan nan nan nan nan nan nan nan nan nan nan nan nan nan nan nan nan nan nan nan nan nan nan nan nan nan nan nan nan nan nan nan nan nan
nan nan nan nan nan nan nan nan nan nan nan nan nan nan nan nan nan nan nan nan nan nan nan nan nan nan nan nan nan nan nan nan nan nan nan nan nan nan nan nan nan nan nan nan nan nan nan nan nan nan nan nan nan nan nan nan nan nan nan nan nan nan nan nan nan nan nan nan nan nan nan nan nan nan nan nan nan nan nan nan nan nan nan nan nan nan
nan nan nan nan nan nan nan nan nan nan nan nan nan nan nan nan nan nan nan nan nan nan nan nan nan nan nan nan nan nan nan nan nan nan nan nan nan nan nan nan nan nan nan nan nan nan nan nan nan nan nan nan nan nan nan nan nan nan nan nan nan nan nan nan nan nan nan nan nan nan nan nan nan nan nan nan nan nan nan nan nan nan nan nan nan nan
nan nan nan nan nan nan nan nan nan nan nan nan nan nan nan nan nan nan nan nan nan nan nan nan nan nan nan nan nan nan nan nan nan nan nan nan nan nan nan nan nan nan nan nan nan nan nan nan nan nan nan nan nan nan nan nan nan nan nan nan nan nan nan nan nan nan nan nan nan nan nan nan nan nan nan nan nan nan nan nan nan nan nan nan nan nan
nan nan nan nan nan nan nan nan nan nan nan nan nan nan nan nan nan nan nan nan nan nan nan nan nan nan nan nan nan nan nan nan nan nan nan nan nan nan nan nan nan nan nan nan nan nan nan nan nan nan nan nan nan nan nan nan nan nan nan nan nan nan nan nan nan nan nan nan nan nan nan nan nan nan nan nan nan nan nan nan nan nan nan nan nan nan
nan nan nan nan nan nan nan nan nan nan nan nan nan nan nan nan nan nan nan nan nan nan nan nan nan nan nan nan nan nan nan nan nan nan nan nan nan nan nan nan nan nan nan nan nan nan nan nan nan nan nan nan nan nan nan nan nan nan nan nan nan nan nan nan nan nan nan nan nan nan nan nan nan nan nan nan nan nan nan nan nan nan nan nan nan nan
nan nan nan nan nan nan nan nan nan nan nan nan nan nan nan nan nan nan nan nan nan nan nan nan nan nan nan nan nan nan nan nan nan nan nan nan nan nan nan nan nan nan nan nan nan nan nan nan nan nan nan nan nan nan nan nan nan nan nan nan nan nan nan nan nan nan nan nan nan nan nan nan nan nan nan nan nan nan nan nan nan nan nan nan nan nan
nan nan nan nan nan nan nan nan nan nan nan nan nan nan nan nan 7 7 nan nan nan nan nan nan nan nan nan nan nan nan nan nan nan nan nan nan nan nan nan nan nan nan nan nan nan nan nan nan nan nan nan nan nan nan nan nan nan nan nan nan nan nan nan nan nan nan nan nan nan nan nan nan nan nan nan nan nan nan nan nan nan nan nan nan nan nan
nan nan nan nan nan nan nan nan nan nan nan nan nan nan nan nan nan nan nan nan nan nan nan nan nan nan nan nan nan nan nan nan nan nan nan nan nan nan nan nan nan nan nan nan nan nan nan nan nan nan 3 nan nan nan nan nan nan nan nan nan nan nan nan nan nan nan nan nan nan nan nan nan nan nan nan nan nan nan nan nan nan nan nan nan nan nan
nan nan nan nan nan nan nan nan nan nan nan nan nan nan nan nan nan nan nan nan nan nan nan nan nan nan nan nan nan nan nan nan nan nan nan nan nan nan nan nan nan nan nan nan nan nan nan nan nan nan 1 8 nan nan nan nan nan nan nan nan nan nan nan nan nan nan nan nan nan nan nan nan nan nan nan nan nan nan nan nan nan nan nan nan nan nan
CIN
-3 -1 nan nan nan nan nan -37 -33 -33 -35 -29 -25 -25 -25 nan nan nan nan nan nan nan nan nan nan nan nan -0 -0 -0 -0 -0 -0 -0 -0 -0 -1 -1 nan nan nan nan nan nan nan nan nan nan nan nan nan nan nan nan nan nan nan nan nan nan nan nan nan nan nan nan nan nan nan nan -0 -0 -0 -0 -0 -0 -4 -4 -12 -19 -19 -29 -35 -40 -40 -47
-1 -2 nan nan nan nan nan -39 -38 -38 -31 -24 -17 -17 -13 nan nan nan nan nan nan nan nan nan nan nan nan -2 -0 -0 -0 -0 -0 -0 -0 -0 -1 -1 nan nan nan nan nan nan nan nan nan nan nan nan nan nan nan nan nan nan nan nan nan nan nan nan nan nan nan nan nan nan nan nan -0 -0 -0 -0 -0 -0 -2 -2 -15 -24 -24 -35 -39 -42 -42 -49
-0 -0 -1 nan nan nan nan nan nan nan nan -22 -8 -8 -6 -9 nan nan nan nan nan nan nan nan nan nan nan nan -0 -0 -0 -0 -0 -0 -0 -0 -1 -1 nan nan nan nan nan nan nan nan nan nan nan nan nan nan nan nan nan nan nan nan nan nan nan nan nan nan nan nan nan nan nan nan -0 -0 -0 -0 -0 -0 -8 -8 -23 -40 -40 -46 -46 -44 -44 -49
-0 -0 -0 -9 -9 nan nan nan nan nan -39 -16 -2 -2 -1 -2 -10 -10 nan nan nan nan nan nan nan nan nan nan -0 -0 -0 -0 -0 -0 -0 -0 -1 -1 nan nan nan nan nan nan nan nan nan nan nan nan nan nan nan nan nan nan nan nan nan nan nan nan nan nan nan nan nan nan nan nan nan -147 -53 -53 -20 -23 -38 -38 -59 -66 -66 -53 -47 -42 -42 -48
-4 -0 -0 -1 -1 -4 nan nan nan nan -23 -8 -2 -2 -1 -3 -6 -6 -15 nan nan nan nan nan nan nan nan nan nan nan -0 -0 -0 -0 -0 -0 -1 -1 nan nan nan nan nan nan nan nan nan nan nan nan nan nan nan nan nan nan nan nan nan nan nan nan nan nan nan nan nan nan nan nan nan nan nan nan -127 -114 -105 -105 -83 -50 -50 -47 -43 -39 -39 -39
-1 -0 -0 -1 -1 -0 -10 -31 -25 -25 -16 -9 -7 -7 -3 -4 -6 -6 -8 nan nan nan nan nan nan nan nan nan -1 -1 -0 -0 -0 -0 -0 -0 -0 -0 nan nan nan nan nan nan nan nan nan nan nan nan nan nan nan nan nan nan nan nan nan nan nan nan nan nan nan nan nan nan nan nan nan nan nan nan nan nan -175 -175 -107 -41 -41 -40 -38 -37 -37 -56
-2 -1 -6 -0 -0 -0 -6 -19 -23 -23 -19 -14 -14 -14 -7 -5 -4 -4 -4 -5 -5 nan nan nan nan nan nan nan -1 -1 -0 -0 -0 -0 -0 -0 -0 -0 nan nan nan nan nan nan nan nan nan nan nan nan nan nan nan nan nan nan nan nan nan nan nan nan nan nan nan nan nan nan nan nan nan nan nan nan nan nan nan nan nan -89 -89 -42 -37 -39 -39 -24
-1 -4 -1 -0 -0 -5 -5 nan nan nan nan -13 -7 -7 -7 -11 -12 -12 -9 -5 -5 nan nan nan nan nan nan nan nan nan -2 -3 -3 -3 -1 -1 -0 -0 nan nan nan nan -44 -2 -2 -2 -4 nan nan nan nan nan nan nan nan nan nan nan nan nan nan nan nan nan nan nan nan nan nan nan nan nan nan nan nan nan nan nan nan nan nan nan nan nan nan -0
-0 -0 -4 -0 -0 nan -3 nan nan nan nan -16 -9 -9 -5 -7 -8 -8 -4 -3 -3 -5 -3 nan nan nan nan nan -22 -22 -3 -2 -3 -3 -1 -0 -0 -0 -51 nan nan nan nan -2 -2 -2 -3 nan nan nan nan nan nan nan nan nan nan nan nan nan nan nan nan nan nan nan nan nan nan nan nan nan nan nan nan nan nan nan nan nan nan nan nan nan nan -1
-0 -0 -0 nan nan nan nan nan nan nan nan -6 -1 -1 -0 -0 -1 -1 -1 -3 -3 -5 -3 nan nan nan nan nan nan nan -4 -1 -1 -1 -1 -0 -1 -1 nan nan nan nan nan -3 -3 -4 -4 nan nan nan nan nan nan nan nan nan nan nan nan nan nan nan nan nan nan nan nan nan nan nan nan nan nan nan nan nan nan nan nan nan nan nan nan nan nan -40
-0 -0 -0 -0 -0 nan -5 -0 -0 -0 -0 -0 -0 -0 -0 -0 -0 -0 -1 -7 -7 -6 -4 nan nan nan nan nan nan nan -4 -1 -1 -1 -1 -1 -3 -3 nan nan nan nan nan nan nan nan nan nan nan nan nan nan nan nan nan nan nan nan nan nan nan nan nan nan nan nan nan nan nan nan nan nan nan nan nan nan nan nan nan nan nan nan nan nan nan nan
-0 -0 -0 -0 -0 -0 -0 -0 -0 -0 -1 -0 -0 -0 -0 -0 -0 -0 -0 -0 -0 -4 -6 -6 -6 nan nan nan nan nan -3 -1 -2 -2 -1 -1 -1 -1 nan nan nan nan nan nan nan nan nan nan nan nan nan nan nan nan nan nan nan nan nan nan nan nan nan nan nan nan nan nan nan nan nan nan nan nan nan nan nan nan nan nan nan nan nan nan nan nan
-0 -0 -0 -0 -0 -0 -0 -0 -1 -1 -1 -0 -0 -0 -0 -0 -0 -0 -0 -0 -0 -0 -5 -3 -3 nan nan nan -5 -5 -2 -1 -2 -2 -1 -0 -0 -0 -4 nan nan nan -3 -2 -2 -2 nan nan nan nan nan nan nan nan nan nan nan nan nan nan nan nan nan nan nan nan nan nan nan nan nan nan nan nan nan nan nan nan nan nan nan nan nan nan nan nan
-0 -0 -0 -0 -0 -0 -0 -0 -0 -0 -0 -0 -0 -0 -0 -0 -0 -0 -0 -0 -0 -0 -0 -3 -3 -8 nan nan -3 -3 -2 -1 -2 -2 -2 -1 -0 -0 -2 -2 -2 -2 -2 -1 -1 -1 nan nan nan -4 nan nan nan nan nan nan nan nan nan nan nan nan nan nan nan nan nan nan nan nan nan nan nan nan nan nan nan nan nan nan nan nan nan nan nan nan
-0 -0 -0 -0 -0 -0 -0 -0 -0 -0 -0 -0 -0 -0 -0 -0 -0 -0 -0 -0 -0 -0 -0 -0 -0 -5 -13 nan nan nan -2 -1 -1 -1 -1 -3 -3 -3 -3 -3 -3 -1 -1 -1 -1 -2 -6 -4 -4 -2 -4 nan nan nan nan nan nan nan nan nan nan nan nan nan nan nan nan nan nan nan nan nan nan nan nan nan nan nan nan nan nan nan nan nan nan nan
-0 -0 -0 -0 -0 -0 -0 -0 -0 -0 -0 -1 -1 -1 -0 -0 -0 -0 -0 -0 -0 -0 -0 -0 -0 -2 -17 nan nan nan -2 -0 -1 -1 -2 -6 -11 -11 -7 -3 -3 -2 -2 -1 -1 -2 -2 -2 -2 -3 -3 nan nan nan nan nan nan nan nan nan nan nan nan nan nan nan nan nan nan nan nan nan nan nan nan nan nan nan nan nan nan nan nan nan nan nan
-0 -0 -0 -0 -0 -0 -0 -0 -0 -0 -0 -0 -0 -0 -0 -0 -0 -0 -0 -0 -0 -0 -0 -0 -0 -2 -13 nan nan nan -3 -0 -3 -3 -4 -10 nan nan nan -5 -5 -3 -3 -3 -3 -3 -2 -2 -2 -2 -3 nan nan nan nan nan nan nan nan nan nan nan nan nan nan nan nan nan nan nan nan nan nan nan nan nan nan nan nan nan nan nan nan nan nan nan
-0 -0 -0 -0 -0 -0 -0 -0 -0 -0 -0 -0 -0 -0 -0 -0 -0 -0 -0 -0 -0 -0 -0 -0 -0 -1 -10 nan nan nan -17 -3 -3 -3 -4 nan nan nan nan -10 -10 -3 -4 -4 -4 -4 -2 -2 -2 -2 nan nan nan nan nan nan nan nan nan nan nan nan nan nan nan nan nan nan nan nan nan nan nan nan nan nan nan nan nan nan nan nan nan nan nan nan
-0 -0 -0 -0 -0 -0 -0 -0 -0 -0 -0 -0 -0 -0 -0 -0 -0 -0 -0 -0 -0 -0 -0 -0 -0 -1 -12 nan nan nan nan -8 -0 -0 -0 -9 nan nan nan -11 -11 -4 -4 -5 -5 -6 -3 -3 -3 nan nan nan nan nan nan nan nan nan nan nan nan nan nan nan nan nan nan nan nan nan nan nan nan nan nan nan nan nan nan nan nan nan nan nan nan nan
-0 -0 -0 -0 -0 -0 -0 -0 -0 -0 -0 -0 -0 -0 -0 -0 -0 -0 -0 -0 -0 -0 -0 -0 -0 -0 -8 nan nan nan nan -15 -1 -1 -1 nan nan nan nan -6 -6 -2 -3 -6 -6 -8 -4 -3 -3 -9 nan nan nan nan nan nan nan nan nan nan nan nan nan nan nan nan nan nan nan nan nan nan nan nan nan nan nan nan nan nan nan nan nan nan nan nan
-0 -0 -0 -0 -0 -0 -0 -0 -0 -0 -0 -0 -0 -0 -0 -0 -0 -0 -0 -0 -0 -0 -0 -0 -0 -0 -0 -0 -0 -0 nan -7 -6 -6 -5 nan nan nan nan nan nan -2 -3 nan nan -13 -6 -4 -4 -4 nan nan nan nan nan nan nan nan nan nan nan nan nan nan nan nan nan nan nan nan nan nan nan nan nan nan nan nan nan nan nan nan nan nan nan nan
-0 -0 -2 -1 -1 -0 -0 -0 -0 -0 -0 -0 -0 -0 -0 -0 -0 -0 -0 -0 -0 -0 -0 -0 -0 -0 -0 -0 -0 -0 -0 -0 nan nan nan nan nan nan nan nan nan -2 -4 nan nan nan -8 -6 -6 -5 nan nan nan nan nan nan nan nan nan nan nan nan nan nan nan nan nan nan nan nan nan nan nan nan nan nan nan nan nan nan nan nan nan nan nan nan
-0 -1 -2 -2 -2 -0 -0 -1 -1 -1 -0 -0 -0 -0 -0 -0 -0 -0 -0 -0 -0 -0 -0 -0 -0 -0 -0 -0 -0 -0 -0 nan nan nan nan nan nan nan nan nan nan -3 -7 nan nan nan -7 -7 -7 -10 nan nan nan nan nan nan nan nan nan nan nan nan nan nan nan nan nan nan nan nan nan nan nan nan nan nan nan nan nan nan nan nan nan nan nan nan
-2 -1 -2 -3 -3 -2 -0 -0 -2 -2 -1 -0 -0 -0 -0 -0 -0 -0 -0 -0 -0 -0 -0 -0 -0 -0 -0 -0 -0 -0 nan nan nan nan nan nan nan nan nan nan nan -3 nan nan nan nan -8 -10 -10 -13 nan nan nan nan nan nan nan nan nan nan nan nan nan nan nan nan nan nan nan nan nan nan nan nan nan nan nan nan nan nan nan nan nan nan nan nan
-3 -3 -2 -3 -3 -1 -0 -1 -0 -0 -1 -1 -0 -0 -0 -0 -0 -0 -0 -0 -0 -0 -0 -0 -0 -0 nan -0 -0 -0 nan nan nan nan nan nan nan nan nan nan nan -4 nan nan nan nan -14 -13 -13 -17 nan nan nan nan nan nan nan nan nan nan nan nan nan nan nan nan nan nan nan nan nan nan nan nan nan nan nan nan nan nan nan nan nan nan nan nan
-0 -0 -0 -0 -0 -0 -0 -0 -0 -0 -0 -0 -1 -1 -1 -0 -0 -0 -0 -0 -0 -0 -0 -0 -0 -0 -0 -0 nan nan nan nan nan nan nan nan nan nan nan nan nan nan nan nan nan nan nan -16 -16 nan nan nan nan nan nan nan nan nan nan nan nan nan nan nan nan nan nan nan nan nan nan nan nan nan nan nan nan nan nan nan nan nan nan nan nan nan
-0 -0 -0 -0 -0 -0 -0 -0 -0 -0 -0 -0 -0 -0 -2 nan -0 -0 -0 -0 -0 -0 -0 -0 -0 -0 -0 -0 nan nan nan nan nan nan -0 -18 nan nan nan nan nan nan nan nan nan nan nan nan nan nan nan nan nan nan nan nan nan nan nan nan nan nan nan nan nan nan nan nan nan nan nan nan nan nan nan nan nan nan nan nan nan nan -2 -2 -2 -0
-0 -0 -0 -0 -0 -0 -0 -0 -0 -0 -0 -0 -0 -0 -0 -1 nan nan nan nan nan -0 -0 -0 -0 -0 -0 -4 nan nan nan nan nan nan -0 -0 nan nan nan nan nan nan nan nan nan nan nan nan nan nan nan nan nan nan nan nan nan nan nan nan nan nan nan nan nan nan nan nan nan nan nan nan nan nan nan nan nan nan -1 -1 -1 -1 -1 nan nan nan
-0 -0 -0 -0 -0 -0 -0 -0 -0 -0 -0 -0 -0 -0 -0 -1 nan nan nan -0 -0 -0 -0 -0 -0 -0 -0 -0 nan nan nan nan nan nan -0 -0 nan nan nan nan nan nan nan nan nan nan nan nan nan nan nan nan nan nan nan nan nan nan nan nan nan nan nan nan nan nan nan nan nan nan nan nan nan nan nan nan -1 -1 -0 -0 -0 -0 -2 nan nan nan
-0 -0 -0 -0 -0 -0 -0 -0 -0 -0 -0 -0 -0 -0 -0 -0 -0 -0 -0 -0 -0 -0 -0 -0 -0 -0 -0 -0 nan nan nan nan nan nan nan nan nan nan nan nan nan nan nan nan nan nan nan nan nan nan nan nan nan nan nan nan nan nan nan nan nan nan nan nan nan nan nan nan nan nan nan nan nan nan nan -1 -0 -0 -0 -0 -0 -2 nan nan nan nan
nan nan nan nan nan nan nan nan -0 -0 -0 -0 -0 -0 -0 -1 -0 -0 -0 -0 -0 -0 -0 -0 -0 -0 -0 -0 -0 -0 nan nan nan nan nan nan nan nan nan nan nan nan nan nan nan nan nan nan nan nan nan nan nan nan nan nan nan nan nan nan nan nan nan nan nan nan nan nan nan nan nan nan nan nan nan -1 -0 -0 -0 -0 -0 nan nan nan nan nan
nan nan nan nan nan nan nan nan nan nan nan nan nan nan -0 -0 -0 -0 nan nan nan -0 -0 -0 -0 -0 -0 -0 -0 -0 -0 nan -0 -0 nan nan nan nan nan nan nan nan nan nan nan nan nan nan nan nan nan nan nan nan nan nan nan nan nan nan nan nan nan nan nan nan nan -1 -1 -1 nan -1 -1 -1 -1 -0 -0 -0 -0 -0 -0 nan nan nan nan nan
nan nan nan nan nan nan nan nan nan nan nan nan nan nan nan nan -0 -0 -0 nan nan nan -0 -0 -0 -0 -0 -0 -0 -0 nan nan nan nan nan nan nan nan nan nan nan nan nan nan nan nan nan nan nan nan nan nan nan nan nan nan nan nan nan nan nan nan nan nan nan nan nan nan -1 -1 -0 -0 -0 -0 -0 -0 -0 -0 -0 -0 -0 nan nan nan nan nan
nan nan nan nan nan nan nan nan nan nan nan nan nan nan nan nan nan nan -0 nan nan nan nan -0 -0 -0 -0 -0 -0 -0 -0 nan -0 -0 -0 nan nan nan nan nan nan nan nan nan nan nan nan nan nan nan nan nan nan nan nan nan nan nan nan nan nan nan nan nan nan nan nan nan nan nan nan nan -0 -0 -0 -0 -0 -0 -0 -0 -0 nan nan nan nan nan
nan nan nan nan nan nan nan nan nan nan nan nan nan nan nan nan nan nan nan nan nan nan nan nan nan nan -0 -0 nan nan -0 nan -1 -1 -0 nan nan nan nan nan nan nan nan nan nan nan nan nan nan nan nan nan nan nan nan nan nan nan nan nan nan nan nan nan nan nan nan nan nan nan nan nan nan nan -3 -0 -0 -0 -0 -0 -0 -0 nan nan nan nan
nan nan nan nan nan nan nan nan nan nan nan nan nan nan nan nan nan nan nan nan nan nan -0 nan nan -1 -0 -0 nan nan nan nan nan nan -0 nan nan nan nan nan nan nan nan nan nan nan nan nan nan nan nan nan nan nan nan nan nan nan nan nan nan nan nan nan nan nan nan nan nan nan nan nan -4 -4 -4 -0 -0 -0 -0 -0 -0 -0 -0 nan nan nan
nan nan nan nan nan nan nan nan nan nan nan nan nan nan nan nan nan nan nan nan nan nan nan -0 -0 -1 -0 -0 nan nan nan nan nan nan -0 -0 nan nan nan nan nan nan nan nan nan nan nan nan nan nan nan nan nan nan nan nan nan nan nan nan nan nan nan nan nan nan nan nan nan nan nan -3 -3 -3 -1 -0 -0 -0 -0 -0 -0 -0 -0 -0 -0 nan
nan nan nan nan nan nan nan nan nan nan nan nan nan nan nan nan nan nan nan nan nan nan nan nan nan nan -0 -0 nan nan nan nan nan nan -0 nan nan nan nan nan nan nan nan nan nan nan nan nan nan nan nan nan nan nan nan nan nan nan nan nan nan nan nan nan nan nan nan nan -1 -1 -2 -4 -6 -6 -5 -5 nan nan nan nan nan nan nan nan nan nan
nan nan nan nan nan nan nan nan nan nan nan nan nan nan nan nan nan nan nan nan nan nan nan nan nan nan nan nan nan nan nan nan nan nan -0 nan nan nan nan nan nan nan nan nan nan nan nan nan nan nan nan nan nan nan nan nan nan nan nan nan nan nan nan nan nan nan nan nan -1 -1 nan nan nan nan nan nan nan nan nan nan nan nan nan nan nan nan
nan nan nan nan nan nan nan nan nan nan nan nan nan nan nan nan nan nan nan nan nan nan nan nan nan nan nan -0 nan nan nan nan nan nan nan nan nan nan nan nan nan nan nan nan nan nan nan nan nan nan nan nan nan nan nan nan nan nan nan nan nan nan nan nan nan nan nan nan nan nan nan nan nan nan nan nan nan nan nan nan nan nan nan nan nan nan
nan nan nan nan nan nan nan nan nan nan nan nan nan nan nan nan nan nan nan nan nan nan nan nan nan nan nan nan nan nan nan nan nan nan nan nan nan nan nan nan nan nan nan nan nan nan nan nan nan nan nan nan nan nan nan nan nan nan nan nan nan nan nan nan nan nan nan nan nan nan nan nan nan nan nan nan nan nan nan nan nan nan nan nan nan nan
-0 nan nan nan nan nan nan nan nan nan nan nan nan nan nan nan nan nan nan nan nan nan nan nan nan nan nan nan nan nan nan nan nan nan nan nan nan nan nan nan nan nan nan nan nan nan nan nan nan nan nan nan nan nan nan nan nan nan nan nan nan nan nan nan nan nan nan nan nan nan nan nan nan nan nan nan nan nan nan nan nan nan nan nan nan nan
nan nan nan nan nan nan nan nan nan nan nan nan nan nan nan nan nan nan nan nan nan nan nan nan nan nan nan nan nan nan nan nan nan nan nan nan nan nan nan nan nan nan nan nan nan nan nan nan nan nan nan nan nan nan nan nan nan nan nan nan nan nan nan nan nan nan nan nan nan nan nan nan nan nan nan nan nan nan nan nan nan nan nan nan nan nan
nan nan nan nan nan nan nan nan nan nan nan nan nan nan nan nan nan nan nan nan nan nan nan nan nan nan nan nan nan nan nan nan nan nan nan nan nan nan nan nan nan nan nan nan nan nan nan nan nan nan nan nan nan nan nan nan nan nan nan nan nan nan nan nan nan nan nan nan nan nan nan nan nan nan nan nan nan nan nan nan nan nan nan nan nan nan
nan nan nan nan nan nan nan nan nan nan nan nan nan nan nan nan nan nan nan nan nan nan nan nan nan nan nan nan nan nan nan nan nan nan nan nan nan nan nan nan nan nan nan nan nan nan nan nan nan nan nan nan nan nan nan nan nan nan nan nan nan nan nan nan nan nan nan nan nan nan nan nan nan nan nan nan nan nan nan nan nan nan nan nan nan nan
nan nan nan nan nan nan nan nan nan nan nan nan nan nan nan nan nan nan nan nan nan nan nan nan nan nan nan nan nan nan nan nan nan nan nan nan nan nan nan nan nan nan nan nan nan nan nan nan nan nan nan nan nan nan nan nan nan nan nan nan nan nan nan nan nan nan nan nan nan nan nan nan nan nan nan nan nan nan nan nan nan nan nan nan nan nan
nan nan nan nan nan nan nan nan nan nan nan nan nan nan nan nan nan nan nan nan nan nan nan nan nan nan nan nan nan nan nan nan nan nan nan nan nan nan nan nan nan nan nan nan nan nan nan nan nan nan nan nan nan nan nan nan nan nan nan nan nan nan nan nan nan nan nan nan nan nan nan nan nan nan nan nan nan nan nan nan nan nan nan nan nan nan
nan nan nan nan nan nan nan nan nan nan nan nan nan nan nan nan nan nan nan nan nan nan nan nan nan nan nan nan nan nan nan nan nan nan nan nan nan nan nan nan nan nan nan nan nan nan nan nan nan nan nan nan nan nan nan nan nan nan nan nan nan nan nan nan nan nan nan nan nan nan nan nan nan nan nan nan nan nan nan nan nan nan nan nan nan nan
nan nan nan nan nan nan nan nan nan nan nan nan nan nan nan nan -0 -0 nan nan nan nan nan nan nan nan nan nan nan nan nan nan nan nan nan nan nan nan nan nan nan nan nan nan nan nan nan nan nan nan nan nan nan nan nan nan nan nan nan nan nan nan nan nan nan nan nan nan nan nan nan nan nan nan nan nan nan nan nan nan nan nan nan nan nan nan
nan nan nan nan nan nan nan nan nan nan nan nan nan nan nan nan nan nan nan nan nan nan nan nan nan nan nan nan nan nan nan nan nan nan nan nan nan nan nan nan nan nan nan nan nan nan nan nan nan nan -0 nan nan nan nan nan nan nan nan nan nan nan nan nan nan nan nan nan nan nan nan nan nan nan nan nan nan nan nan nan nan nan nan nan nan nan
nan nan nan nan nan nan nan nan nan nan nan nan nan nan nan nan nan nan nan nan nan nan nan nan nan nan nan nan nan nan nan nan nan nan nan nan nan nan nan nan nan nan nan nan nan nan nan nan nan nan -0 -0 nan nan nan nan nan nan nan nan nan nan nan nan nan nan nan nan nan nan nan nan nan nan nan nan nan nan nan nan nan nan nan nan nan nan
Wind_Speed
7 7 8 8 8 7 7 8 8 7 6 5 4 4 4 5 5 5 6 6 6 6 6 6 6 8 10 13 16 18 19 19 19 18 16 13 10 9 9 9 10 11 13 15 17 18 18 15 13 13 14 15 16 17 19 20 21 21 22 21 21 21 20 20 20 21 22 21 21 21 21 22 23 24 25 24 24 23 23 23 22 21 20 20 20 20
7 7 7 8 8 7 7 8 8 7 7 5 4 4 4 5 5 4 4 5 6 6 6 6 7 8 9 11 14 17 19 19 20 19 17 13 10 9 8 9 10 11 12 14 15 16 16 13 12 11 12 13 13 15 16 18 20 21 22 21 21 20 20 19 19 20 21 20 19 19 19 20 22 23 24 24 24 23 23 23 22 21 20 20 20 20
7 7 7 7 7 8 7 7 7 7 6 5 4 3 4 5 5 4 4 4 5 5 5 6 6 7 8 9 13 17 18 19 20 20 18 13 10 9 9 9 9 10 11 13 14 15 14 11 10 10 11 12 13 13 14 16 18 19 20 20 20 19 18 18 18 18 19 18 17 17 17 18 20 22 23 23 23 22 22 22 22 21 20 20 20 19
6 7 7 6 6 7 7 7 7 6 5 4 3 4 4 4 4 4 4 4 4 5 5 5 6 6 7 8 11 15 18 20 21 21 20 15 11 9 10 10 10 10 10 12 12 12 11 8 8 9 11 13 14 15 15 16 16 17 17 18 18 18 17 17 17 17 18 17 16 15 15 16 17 19 21 21 21 21 21 21 21 20 20 20 20 20
6 6 6 6 6 6 7 7 6 5 4 3 3 3 4 4 4 4 5 5 5 5 4 4 5 6 6 7 10 14 18 19 20 21 21 17 12 10 10 11 11 10 10 11 10 9 8 7 7 9 11 13 15 16 17 17 17 16 16 16 17 17 17 17 17 17 17 16 15 14 14 14 15 16 17 17 18 18 19 19 19 19 20 20 21 20
5 5 5 6 6 6 6 5 5 4 4 3 3 3 3 3 3 4 4 5 5 4 4 4 4 5 6 6 9 13 16 18 19 20 21 17 13 11 11 11 11 11 10 9 8 7 6 6 7 8 10 12 14 16 17 18 17 17 16 16 16 16 17 17 17 17 17 16 15 14 13 14 14 14 15 15 15 15 16 17 18 18 18 20 21 20
5 5 5 5 6 6 5 5 4 4 4 3 3 3 3 3 3 4 4 4 4 4 4 4 4 4 5 6 8 11 13 15 16 18 19 17 13 11 12 12 12 11 10 8 7 6 6 6 6 7 8 10 12 15 17 18 18 18 17 16 16 16 16 17 17 17 17 15 14 13 13 14 14 14 15 14 13 13 13 14 16 17 18 19 20 21
5 5 5 6 6 6 5 5 4 4 4 4 4 4 4 3 3 4 4 4 4 4 4 4 4 4 4 5 6 8 9 10 11 12 15 14 11 11 12 13 13 12 10 9 8 7 7 6 6 7 7 9 11 13 16 17 18 18 18 17 16 15 16 16 17 17 16 15 13 13 13 14 15 15 15 14 13 12 12 13 15 17 20 21 21 21
6 6 6 6 6 6 6 5 4 4 4 4 4 4 5 4 4 3 3 4 3 3 3 3 3 4 4 4 4 5 7 7 7 8 10 10 8 8 11 12 12 12 11 10 9 8 8 7 7 7 7 8 9 11 14 16 18 19 18 17 16 15 15 16 16 16 16 15 14 14 14 15 16 16 15 15 14 13 12 12 15 18 21 22 23 22
7 6 5 5 6 5 5 5 4 4 3 3 3 4 4 5 4 4 3 3 2 2 2 2 3 4 4 3 4 4 6 7 8 9 10 11 9 8 9 10 10 11 12 11 10 9 8 8 8 7 7 8 9 10 12 15 17 18 18 17 16 15 15 15 15 15 16 15 16 16 16 16 16 15 15 14 14 13 12 12 15 19 23 24 24 23
6 6 6 4 4 3 3 3 2 3 5 4 4 3 3 4 4 4 4 3 2 2 2 2 2 3 3 3 3 4 5 6 6 7 9 11 10 9 9 9 9 9 10 10 10 9 8 8 8 8 8 8 8 9 11 13 16 17 18 17 16 15 15 15 15 15 15 15 15 16 16 15 14 14 13 13 13 13 12 12 15 19 24 24 24 24
5 5 5 5 4 4 4 4 4 5 6 5 5 4 5 6 6 6 6 5 3 2 2 2 2 2 2 2 3 3 4 5 5 5 5 7 7 6 6 6 6 7 8 8 8 8 9 9 8 8 8 8 8 8 9 11 14 16 18 17 16 16 15 15 15 15 15 15 15 15 15 14 13 12 12 12 12 12 11 12 14 18 23 23 23 23
5 4 4 4 4 5 5 6 5 5 5 5 5 5 5 6 6 6 6 6 4 3 2 2 2 2 2 2 2 2 3 4 4 4 4 6 6 5 4 4 4 4 5 5 5 6 8 8 8 8 8 7 8 8 8 10 12 15 17 17 17 16 16 16 16 16 15 15 15 15 15 13 13 12 12 12 11 11 11 12 14 17 21 21 21 21
5 5 5 5 5 5 5 6 6 5 5 5 5 5 5 5 5 5 5 6 6 4 2 2 2 2 2 2 2 2 2 4 4 4 4 5 5 4 3 3 3 3 3 4 4 5 6 7 7 7 7 7 7 7 8 9 11 14 16 17 18 17 17 17 17 16 16 15 14 14 14 13 13 12 12 12 12 12 12 13 14 16 18 18 18 18
5 5 5 6 6 5 5 6 6 5 5 4 4 5 5 5 5 5 5 6 6 6 5 3 2 2 2 2 2 2 2 3 3 4 4 4 5 5 4 3 3 3 4 4 4 5 6 6 5 5 6 7 7 7 7 7 10 13 15 17 19 19 19 18 17 16 16 15 14 14 14 13 13 13 13 13 13 13 13 14 15 16 17 17 17 17
5 5 6 6 6 5 5 5 6 6 6 5 5 5 5 5 5 5 5 5 5 5 5 4 3 2 1 2 2 3 3 3 4 4 4 4 4 5 4 3 3 3 4 4 4 4 5 5 5 5 6 8 8 8 8 7 9 11 13 15 18 20 21 19 18 16 15 15 14 13 13 13 13 13 13 13 13 13 13 14 15 16 17 17 17 16
5 5 5 5 6 6 6 6 6 6 6 6 5 5 5 5 5 5 5 4 4 4 4 3 3 2 1 1 2 3 4 3 3 3 3 4 4 4 3 3 3 3 3 3 4 4 5 5 5 5 6 8 9 9 9 9 9 10 12 14 16 18 20 20 19 17 15 14 13 12 12 13 13 13 14 14 14 14 14 14 14 15 16 16 16 16
5 5 5 5 5 5 5 5 5 6 6 6 6 5 5 5 5 5 5 4 4 4 4 3 2 2 1 1 1 2 3 3 2 2 3 4 4 3 2 2 2 3 3 3 4 4 5 5 6 6 6 9 10 11 10 10 10 11 12 13 15 17 19 20 19 18 16 15 14 13 13 13 13 14 14 14 14 14 14 14 14 15 16 16 16 16
5 5 5 5 5 5 5 5 5 6 6 6 6 6 6 5 5 5 5 4 4 4 5 4 3 2 1 1 2 2 3 2 2 3 4 4 3 2 2 2 3 3 3 3 4 4 4 5 6 7 8 10 12 12 12 11 11 12 13 13 15 16 18 20 20 19 18 17 15 15 14 14 14 14 15 15 15 15 14 14 14 15 16 17 18 20
5 4 5 5 5 5 5 5 5 6 6 6 6 6 6 5 5 5 5 4 4 4 5 5 5 3 1 1 1 1 1 1 2 3 4 3 2 1 2 3 3 3 3 3 3 4 4 4 5 7 9 11 12 13 13 13 12 13 13 14 15 16 18 19 20 20 19 18 17 16 15 14 14 14 14 15 15 15 15 15 16 17 19 21 23 25
4 4 4 4 5 4 4 4 5 7 8 8 7 6 5 5 5 5 5 5 5 5 4 5 5 4 4 5 5 5 4 2 2 2 2 2 1 1 1 3 3 4 3 3 3 3 4 4 5 5 7 10 12 14 14 14 13 14 14 14 15 16 17 18 19 20 20 19 18 16 15 15 14 14 14 15 16 16 18 19 20 22 24 26 28 29
4 4 4 5 5 5 4 4 6 7 9 9 7 5 5 5 5 6 6 5 5 5 5 5 5 5 5 6 7 7 6 4 2 1 1 1 1 1 1 2 3 3 3 3 3 3 4 4 4 5 7 10 13 14 15 14 14 14 15 15 15 16 17 18 19 19 20 19 18 17 15 15 15 15 16 17 19 20 22 24 25 26 27 28 30 31
4 4 5 5 5 5 5 4 5 6 7 7 6 5 4 5 6 6 6 6 5 5 6 6 6 6 6 7 7 7 6 3 1 0 1 1 2 1 1 2 3 3 3 3 3 3 4 4 4 5 7 11 13 14 15 15 15 15 15 15 16 16 17 18 18 19 19 19 18 17 16 16 16 17 19 21 23 25 27 28 29 29 29 30 31 31
4 4 4 4 4 5 4 4 4 4 5 5 5 4 4 5 5 6 5 6 6 5 5 6 6 6 6 6 6 5 3 1 1 1 1 2 2 2 1 2 3 4 3 2 2 3 4 4 4 4 5 10 13 15 15 15 15 15 16 16 16 17 18 19 19 18 18 18 18 17 17 18 20 22 24 26 28 30 31 31 31 31 31 31 31 32
5 5 5 5 6 7 7 6 6 6 6 5 4 4 4 5 6 6 6 5 5 5 5 5 5 5 4 4 4 3 1 1 2 2 1 2 2 2 2 2 3 3 2 1 1 2 4 4 3 4 4 7 11 14 15 15 15 15 16 17 17 18 19 20 19 19 18 18 19 19 21 22 25 27 29 30 31 32 33 34 33 33 32 32 32 32
9 9 9 10 12 13 13 13 12 12 12 9 6 4 4 5 5 5 4 4 4 5 5 5 4 4 3 3 3 2 1 2 2 2 1 2 2 2 2 2 2 2 2 1 0 1 3 4 4 4 4 5 8 12 14 15 15 15 16 17 18 19 20 21 21 20 21 21 22 24 26 28 29 31 32 33 34 34 35 35 35 34 33 32 31 31
15 15 15 16 16 16 16 15 15 15 16 14 11 8 6 5 5 4 4 4 4 4 4 4 3 3 3 3 2 1 0 2 2 2 1 1 2 2 2 1 2 3 2 1 1 0 2 3 3 3 3 4 5 8 12 14 15 15 16 17 19 20 22 23 24 24 25 26 27 29 30 31 32 33 34 35 35 36 36 37 36 34 32 28 27 26
16 16 16 16 16 16 16 15 15 15 16 16 15 13 8 5 4 4 4 4 4 4 4 3 3 3 3 3 2 1 0 1 2 1 1 1 2 2 2 2 2 3 3 2 2 2 2 2 2 2 3 3 4 6 10 12 14 16 17 19 21 23 25 26 27 28 29 30 32 33 33 34 35 35 36 36 37 37 38 37 36 33 28 23 18 17
14 15 15 15 15 15 15 14 14 15 15 16 15 13 8 5 4 4 4 4 4 4 4 4 3 3 4 4 3 2 1 1 1 1 0 2 2 2 2 2 3 3 3 2 2 2 3 3 2 1 2 3 4 5 7 10 12 14 17 21 24 26 28 30 31 31 32 33 34 35 36 37 37 37 37 38 38 38 37 36 33 28 22 18 15 14
11 12 12 12 13 12 12 11 11 12 14 14 14 12 8 5 4 3 4 4 4 4 4 4 3 3 4 5 4 3 1 1 1 0 1 2 2 2 2 3 3 3 4 3 2 2 2 2 3 2 2 4 5 5 7 8 9 11 14 18 22 25 29 31 32 32 33 34 35 36 38 38 39 39 39 38 38 37 35 33 28 22 16 15 14 14
9 9 9 9 9 9 8 8 8 9 10 11 11 10 7 5 4 3 3 3 3 3 3 3 3 3 3 3 3 2 1 1 1 2 1 1 1 1 2 2 3 3 4 3 3 3 2 1 2 2 3 5 5 6 7 8 9 10 11 13 16 20 27 30 31 31 32 33 34 36 37 38 39 39 39 38 37 35 33 30 25 20 15 15 14 14
8 7 7 7 7 7 6 6 6 7 7 8 8 7 7 6 5 4 3 3 3 3 3 3 3 3 3 3 3 2 1 1 3 4 4 2 1 1 1 2 2 3 3 3 4 4 3 2 1 2 3 5 5 6 7 8 8 9 11 12 13 17 24 26 27 27 27 30 32 34 35 36 37 37 36 35 34 33 31 29 25 20 16 15 15 15
7 6 6 6 6 6 6 6 6 6 6 6 6 6 6 6 6 6 4 4 3 3 3 3 3 3 3 4 4 4 3 2 4 6 6 3 1 1 1 1 2 2 2 3 3 4 4 3 3 3 4 5 5 6 6 7 7 8 11 12 13 14 19 20 20 21 21 24 26 29 31 32 32 32 32 32 31 31 30 28 26 22 18 16 16 16
7 7 6 6 6 6 6 6 6 6 6 6 6 7 6 6 6 6 6 4 4 3 3 3 3 3 4 4 4 4 4 3 4 5 7 4 2 1 2 1 1 2 3 3 4 4 4 4 4 4 4 5 5 5 6 6 7 8 9 11 11 12 13 14 15 16 16 17 18 19 21 23 25 27 27 27 28 28 28 27 26 23 21 18 16 16
7 7 7 7 7 6 7 7 7 7 6 6 7 7 7 7 6 6 6 5 5 4 3 3 3 3 4 4 4 5 5 4 4 6 7 4 1 1 1 1 1 2 4 5 5 5 5 5 5 6 6 5 5 5 5 5 6 7 8 10 10 10 11 12 13 14 14 14 13 13 13 14 16 18 20 22 24 26 27 27 26 25 23 20 17 15
7 7 7 7 7 7 7 7 7 7 7 7 7 7 7 7 7 7 6 6 6 5 5 4 4 4 4 5 5 6 6 6 6 7 8 4 1 1 1 1 1 2 4 6 7 7 6 5 6 7 8 7 6 5 4 5 6 7 8 9 9 10 10 11 12 13 13 13 13 12 11 11 12 14 16 22 26 27 28 28 27 26 25 23 20 17
7 7 8 7 7 7 8 7 7 7 7 7 7 7 7 7 7 7 7 6 6 6 6 5 5 5 6 6 6 7 7 7 7 8 8 6 2 1 1 1 1 2 4 6 8 8 7 7 7 7 7 7 6 5 4 4 5 7 8 8 8 9 9 9 10 11 13 13 13 12 12 12 13 15 18 23 26 27 27 28 28 27 27 25 24 22
8 8 8 8 8 8 7 7 7 7 8 8 8 8 8 8 8 8 7 7 7 6 6 6 5 6 8 9 9 9 9 9 9 9 9 7 2 2 2 2 2 1 2 6 8 9 9 8 8 7 6 6 7 7 7 6 6 7 7 7 8 8 8 8 9 10 12 13 14 14 13 13 13 14 15 16 16 17 18 18 20 22 25 24 25 24
8 8 8 9 8 8 8 8 8 8 8 8 8 8 8 8 8 8 7 6 6 6 7 6 6 6 8 9 9 9 8 8 8 8 9 5 1 4 4 3 2 1 1 4 7 9 10 10 9 8 8 8 7 7 6 6 7 8 9 8 8 8 8 7 7 8 10 12 14 14 13 12 11 12 11 11 11 12 12 12 13 14 16 16 19 21
9 8 9 9 9 8 8 8 8 8 7 8 8 8 8 8 8 7 7 7 7 7 8 8 7 6 6 6 6 6 6 5 4 4 5 2 4 7 6 4 3 2 2 3 4 6 8 9 9 9 10 9 9 8 6 6 7 9 11 9 8 7 6 6 6 6 7 10 12 13 12 10 10 10 10 10 10 11 11 10 9 10 11 11 12 14
9 9 9 9 9 9 9 8 8 8 8 7 7 7 8 8 8 7 8 8 8 8 8 8 7 6 4 4 4 5 7 6 6 4 1 7 10 10 7 5 3 2 2 3 4 4 6 8 10 10 10 10 11 10 9 8 9 10 12 10 9 8 7 7 7 7 8 10 11 12 13 12 12 12 11 11 10 9 9 9 9 9 8 7 7 8
10 9 9 8 8 8 8 8 9 8 8 7 7 7 8 8 8 8 8 8 8 8 8 8 7 6 5 4 4 6 7 7 5 4 5 11 13 13 10 6 4 3 3 4 5 5 6 8 10 11 12 11 11 10 9 8 9 9 10 11 11 12 10 9 7 7 9 10 11 12 14 13 12 12 12 12 11 10 10 10 11 11 9 7 6 6
9 8 8 8 8 8 9 9 9 8 8 7 7 7 8 8 8 8 8 8 8 8 8 7 7 6 4 4 4 5 6 7 6 6 8 12 14 15 12 9 7 5 4 4 5 6 6 7 7 8 9 10 10 11 12 10 9 9 9 11 12 11 8 6 5 6 8 10 10 11 11 11 11 11 11 11 10 9 9 11 12 12 11 9 8 8
8 8 8 8 8 8 8 8 8 8 8 8 8 8 8 8 9 9 8 7 8 8 8 7 6 5 4 4 4 4 5 6 7 8 10 13 15 16 14 12 10 8 6 5 5 5 5 6 6 6 6 8 10 11 12 11 10 8 7 8 9 10 9 7 7 7 8 9 9 10 11 11 11 11 11 10 10 9 9 10 10 10 11 10 10 9
8 8 8 8 8 9 9 9 9 8 8 8 8 8 8 9 9 9 8 8 7 7 7 7 6 5 4 4 4 4 3 4 6 7 9 14 17 19 17 14 11 9 8 7 5 5 5 6 6 6 6 7 9 11 12 12 11 9 7 8 9 10 10 9 8 9 9 10 10 10 11 11 12 12 12 11 10 9 9 10 10 10 10 10 10 10
8 8 9 8 9 9 9 9 9 8 8 8 8 8 8 9 8 8 8 8 7 7 7 6 6 5 5 5 4 3 3 4 5 6 6 9 12 15 16 14 12 10 9 8 8 7 6 6 6 7 7 7 8 9 10 11 11 11 10 10 10 11 11 10 9 9 10 10 10 10 10 11 12 13 13 12 11 10 10 10 10 10 9 9 9 8
9 9 9 9 8 9 9 9 9 8 8 8 8 8 8 8 8 8 8 8 7 7 7 6 6 6 6 5 5 4 4 4 4 5 5 7 9 11 13 13 13 12 10 10 10 10 9 8 7 6 6 7 8 7 7 9 10 11 11 10 11 11 11 10 10 9 9 10 10 11 11 11 13 14 13 12 11 10 10 9 9 8 8 8 8 7
9 9 9 9 8 8 9 9 9 8 8 8 8 8 8 9 9 9 8 8 7 7 7 6 6 6 7 6 6 6 5 5 5 5 5 5 6 8 11 11 11 11 11 11 12 12 13 12 11 9 6 6 7 7 7 7 8 9 10 10 10 11 11 10 9 9 9 9 10 11 11 11 12 13 13 13 12 10 9 9 8 7 6 7 7 7
9 9 9 9 8 8 9 9 9 9 9 9 8 8 8 9 10 10 8 7 7 7 7 7 7 7 7 7 7 7 7 6 5 4 4 4 4 5 8 10 11 10 9 9 10 11 12 14 15 14 11 8 6 7 8 7 8 8 8 9 10 10 10 9 8 8 8 9 10 10 10 9 10 12 13 13 13 11 10 9 8 7 6 6 6 7
9 9 9 8 8 9 9 9 9 9 9 9 8 8 7 7 8 8 7 7 7 6 6 7 7 6 7 7 7 7 7 6 5 5 4 3 3 3 6 9 10 10 8 6 6 7 8 10 12 15 17 14 11 7 6 7 8 8 9 9 9 9 10 9 8 7 8 9 10 11 12 10 9 10 12 13 13 12 11 10 8 7 5 5 6 7
9 9 9 8 8 8 8 8 8 9 9 9 8 8 7 7 7 7 7 7 7 7 6 6 6 6 7 7 7 7 7 6 6 5 5 4 3 2 4 7 9 9 8 6 5 4 5 6 7 10 14 18 17 13 5 5 6 8 8 8 7 8 8 8 8 8 9 9 9 10 11 10 9 9 11 12 13 12 11 10 9 7 5 5 6 7
Wind_Direction
283 286 285 282 281 282 283 283 285 288 290 290 293 297 302 305 303 301 303 305 306 308 311 314 316 318 319 319 320 321 324 326 326 322 310 292 271 248 230 220 215 216 222 229 231 231 227 218 208 198 192 190 188 187 185 185 185 185 185 185 186 188 192 197 201 206 209 212 214 215 216 215 212 209 207 202 196 189 183 184 186 188 190 191 191 189
283 283 282 280 280 281 282 283 283 285 287 287 290 295 301 302 303 304 303 301 302 305 310 314 316 317 317 315 317 319 322 325 326 323 313 295 271 245 224 213 209 212 219 225 228 227 222 213 204 196 194 193 193 192 191 188 187 185 184 184 185 186 189 192 196 201 206 209 211 213 214 214 212 209 206 201 195 189 185 185 187 188 190 190 190 188
286 285 283 282 281 280 281 282 281 280 280 281 280 282 288 295 299 303 303 301 300 302 307 312 315 314 313 310 314 318 321 324 325 323 316 298 271 241 220 211 207 209 217 222 224 221 215 204 195 192 193 195 199 202 205 201 195 190 186 184 184 185 186 189 193 198 203 207 209 210 212 212 210 207 203 199 194 189 185 185 186 188 189 190 190 187
281 280 281 280 277 275 275 276 276 276 277 274 267 263 268 281 290 296 296 295 295 297 302 307 311 311 310 309 312 315 319 321 323 322 317 302 277 244 219 211 207 208 215 219 218 213 203 188 183 186 190 194 198 204 210 211 208 202 194 188 185 184 184 186 190 196 202 205 207 207 209 211 210 207 202 198 194 190 186 185 185 186 188 191 191 189
276 276 278 278 276 273 270 270 270 273 279 271 256 249 256 269 281 289 290 288 289 291 296 302 307 308 307 308 311 314 317 319 320 319 316 303 281 249 221 211 207 207 211 214 212 204 188 174 172 178 186 191 195 199 205 210 213 212 207 199 192 186 184 185 189 194 199 203 204 204 206 209 210 209 203 198 194 190 187 185 183 183 186 191 193 191
276 273 273 273 273 273 273 271 273 280 289 278 261 249 251 261 272 281 285 286 287 288 292 296 300 302 302 305 310 313 316 318 319 318 315 303 283 251 222 211 205 203 207 208 205 196 179 169 168 173 180 187 192 196 199 204 208 212 214 209 201 192 186 186 187 191 195 199 200 201 202 206 208 209 207 201 195 190 187 185 183 183 186 192 195 194
279 272 268 269 270 271 272 273 279 286 291 288 281 271 260 257 261 267 274 279 283 285 289 291 294 297 300 305 311 314 316 318 318 318 315 302 281 249 220 207 201 198 200 202 201 195 185 173 169 170 175 182 189 193 196 199 203 207 211 210 206 199 191 188 187 188 191 195 197 199 201 203 206 208 210 206 200 193 188 187 186 186 189 195 198 198
281 269 261 262 264 266 267 268 271 275 280 282 284 282 277 267 261 259 264 270 275 280 287 293 297 301 305 310 315 317 318 319 320 319 316 304 278 241 214 201 194 192 193 196 197 196 192 183 176 173 173 179 185 190 194 197 200 203 206 207 206 201 195 191 188 188 189 193 196 199 202 203 204 206 208 208 205 199 193 190 188 189 194 199 202 203
285 272 258 253 254 258 263 266 269 272 275 276 277 280 283 279 272 263 260 265 269 276 287 297 304 308 311 315 319 320 318 316 316 316 314 308 281 237 209 195 189 187 189 191 192 193 193 188 183 180 178 179 183 187 192 195 198 200 202 203 202 200 196 192 190 189 190 194 198 202 204 204 203 202 202 203 203 201 197 192 189 190 195 201 204 204
301 292 276 258 251 251 256 264 273 287 299 289 282 278 280 283 280 274 263 266 270 278 284 292 301 307 312 316 320 322 319 312 308 305 304 297 281 251 212 196 189 186 186 187 188 190 191 190 188 186 185 184 184 186 190 194 196 198 199 198 198 197 194 192 190 189 190 193 198 202 203 202 200 198 195 195 197 198 197 192 188 189 194 200 204 204
321 319 313 299 280 265 263 277 306 337 344 333 325 318 313 316 312 304 294 286 284 284 281 280 288 298 308 313 321 326 325 314 309 305 301 289 274 250 217 201 189 182 181 183 185 187 190 191 192 191 190 189 188 188 189 192 195 196 196 195 195 194 194 193 190 188 186 188 192 195 197 195 193 191 189 190 192 194 195 191 189 190 194 200 203 203
329 329 328 332 337 343 349 355 2 5 3 359 356 354 354 352 345 335 324 314 299 277 266 268 271 275 284 300 315 323 324 313 309 306 301 289 275 252 218 200 186 176 175 179 183 187 191 194 195 195 194 193 191 189 189 192 194 194 194 193 193 193 194 195 193 189 185 183 185 187 187 185 184 183 183 184 186 188 190 189 189 192 195 200 202 202
332 330 328 340 352 360 0 360 2 6 10 9 3 355 346 345 342 337 327 321 311 287 247 250 252 252 250 265 288 306 313 307 304 302 295 287 277 260 221 198 182 171 171 177 183 189 192 195 197 199 198 196 193 190 188 190 192 194 194 193 193 193 195 197 195 191 184 181 180 181 180 178 176 176 176 176 176 178 180 183 187 191 196 199 202 203
338 337 338 348 356 1 1 1 1 4 6 5 358 347 333 330 330 329 324 320 318 313 285 251 237 232 225 227 238 264 292 297 297 293 283 277 271 259 224 193 178 172 173 180 187 191 190 193 197 201 201 199 196 191 187 188 190 192 194 194 194 195 195 198 196 191 185 180 179 180 178 176 174 172 170 167 167 168 172 176 181 186 192 196 200 203
343 344 347 352 356 360 360 358 357 357 356 352 346 339 330 330 332 332 328 323 321 319 311 287 257 227 208 200 197 206 246 277 282 278 272 265 261 253 233 194 173 169 176 185 188 188 184 189 195 200 202 203 200 194 186 184 185 188 191 194 195 196 196 196 194 190 184 181 180 181 181 178 174 170 166 162 160 162 166 171 176 180 185 190 194 198
345 349 352 353 354 354 353 352 351 349 346 343 342 340 337 336 334 330 322 317 315 311 303 291 274 246 207 181 175 181 201 236 251 257 258 251 246 242 231 196 172 169 179 185 186 184 181 187 192 196 199 199 195 188 182 176 174 177 183 189 193 194 194 192 189 185 180 179 179 179 180 178 175 170 165 161 158 159 162 167 172 176 179 183 187 190
347 352 353 351 350 350 348 346 345 343 339 339 339 339 337 332 326 320 312 309 306 301 290 281 272 259 216 158 165 179 191 212 225 235 240 240 238 232 222 194 178 176 182 186 185 182 180 184 189 193 197 195 191 186 181 172 167 167 172 180 185 189 190 187 182 177 174 174 175 176 178 177 175 172 167 162 159 157 159 164 168 172 175 178 180 181
349 354 353 350 347 344 342 342 341 340 336 335 334 333 331 325 318 311 305 304 302 299 293 287 278 262 212 181 181 186 184 203 229 248 244 239 234 224 206 191 186 187 189 191 189 185 181 183 187 190 192 188 186 184 181 173 167 164 165 171 177 182 183 180 175 171 168 170 172 174 176 176 175 173 170 165 160 157 156 160 164 167 168 170 169 166
348 353 353 347 342 337 336 340 341 338 335 333 331 329 327 324 319 313 306 304 302 301 297 295 290 278 227 200 197 194 178 189 235 265 261 247 231 204 181 183 190 196 198 196 193 189 183 183 185 186 185 183 182 182 181 176 170 165 164 167 172 175 177 174 170 166 165 167 170 172 173 173 172 171 170 165 160 156 154 155 156 157 155 152 148 145
343 349 351 341 333 328 330 338 339 335 330 325 323 322 323 323 319 314 307 306 305 303 299 295 295 298 317 316 286 265 214 198 235 256 263 255 236 199 176 182 192 201 203 200 196 191 185 181 180 180 180 180 180 181 181 179 174 170 166 167 169 171 171 168 164 162 161 164 167 170 171 170 169 167 164 160 156 151 146 145 143 141 139 136 133 131
337 341 343 333 326 322 327 337 334 329 322 319 318 318 322 322 318 312 307 306 304 303 298 294 302 316 336 332 324 315 312 295 263 250 261 259 249 225 189 185 193 202 206 200 195 191 187 180 179 180 182 180 180 180 181 180 177 173 170 169 169 169 168 165 162 160 159 161 165 168 169 167 164 160 156 151 147 141 136 133 131 129 128 126 125 124
331 331 330 323 318 315 320 324 325 322 318 317 318 321 327 323 315 308 303 301 299 297 294 293 299 304 306 298 294 291 291 280 264 250 272 266 254 237 210 188 194 203 207 199 195 192 187 181 180 180 182 181 181 181 181 179 177 174 171 169 167 166 164 163 160 159 160 162 165 167 168 163 158 152 146 141 136 132 127 125 123 122 121 121 121 120
325 323 321 317 314 312 315 317 317 316 314 313 316 320 324 317 307 300 295 292 291 289 288 287 287 284 277 271 270 270 265 257 251 285 294 276 259 244 229 191 194 201 204 193 190 190 186 182 179 178 179 182 182 181 180 178 175 173 170 168 165 162 158 156 155 156 159 161 163 164 162 155 148 142 136 132 129 125 122 120 119 118 118 118 118 118
325 321 319 317 315 316 318 321 319 315 310 309 311 317 321 311 300 291 285 282 280 279 280 282 282 280 274 268 265 263 255 255 50 33 322 289 278 268 240 194 193 195 194 189 187 184 180 177 174 174 178 183 182 181 178 175 172 170 168 166 162 158 153 149 149 151 154 155 156 154 150 143 137 132 129 126 124 121 119 117 116 115 116 116 116 116
335 332 331 331 335 339 343 341 336 331 326 321 322 327 332 318 305 293 282 281 282 284 280 277 277 279 281 275 267 262 272 46 50 38 332 300 289 278 249 202 185 177 168 204 204 185 173 170 167 170 179 184 182 179 175 171 168 165 164 163 160 155 149 145 144 144 146 145 144 141 137 132 129 126 124 122 120 118 117 115 114 114 113 113 113 113
348 348 349 349 350 351 352 349 345 342 341 340 343 348 350 328 316 308 307 318 320 314 302 289 282 280 282 273 261 258 320 51 52 42 347 306 288 274 254 203 160 135 113 1 275 188 166 163 162 166 178 183 179 174 169 165 162 159 159 157 155 151 146 141 139 139 138 136 134 131 129 126 124 122 121 119 118 117 115 114 113 112 112 111 110 110
352 352 354 354 355 355 356 353 348 345 345 347 353 359 2 341 331 331 342 345 336 323 309 302 294 288 279 263 248 238 82 65 60 48 14 302 278 265 248 186 137 118 100 40 0 107 144 147 152 160 171 176 172 166 160 156 153 151 151 149 147 144 140 137 135 134 133 131 129 127 126 124 122 121 119 118 117 116 115 114 113 112 110 109 108 107
352 354 355 356 356 357 357 353 349 346 346 350 355 0 3 350 341 341 344 338 329 319 310 306 303 299 293 285 275 259 165 93 81 68 33 276 262 251 229 172 136 121 108 76 33 27 53 71 99 130 149 150 148 146 145 142 142 141 140 140 139 137 135 133 132 131 130 129 128 127 125 124 122 121 119 119 118 117 116 115 113 112 110 108 107 106
350 352 353 355 355 355 355 351 347 345 346 349 354 358 1 352 342 337 334 330 326 321 314 311 310 309 307 307 303 290 218 129 110 115 186 246 248 236 203 167 147 132 119 103 68 40 34 18 12 33 118 120 120 122 125 126 128 129 129 130 130 130 130 129 129 129 129 129 128 127 126 125 123 122 121 120 119 118 117 116 114 113 110 109 109 109
347 349 350 352 352 352 350 347 344 343 343 347 350 353 353 346 335 325 321 323 323 321 316 314 314 316 315 305 295 276 207 133 105 130 225 240 237 219 187 172 159 146 133 122 104 72 46 6 355 5 74 99 102 105 110 112 114 116 119 121 123 124 125 125 125 126 127 128 128 127 127 125 124 124 123 122 121 120 119 117 116 114 112 111 110 110
345 347 347 347 347 346 345 343 341 339 340 343 345 347 345 339 330 322 317 318 318 314 311 309 312 315 316 304 291 277 218 81 15 340 292 261 244 218 190 179 167 156 148 137 128 119 100 25 357 8 57 84 90 94 99 104 108 111 113 114 115 117 119 119 120 121 123 124 124 125 125 124 124 124 124 123 122 121 120 119 117 116 115 114 112 111
343 344 345 344 343 342 342 343 340 338 337 339 340 340 338 334 330 325 319 314 309 304 302 301 303 304 301 295 292 293 299 342 344 336 321 307 293 266 229 199 179 165 154 140 133 129 123 109 68 50 67 79 83 85 88 95 102 108 111 110 111 113 115 114 115 116 117 118 119 120 121 121 122 122 122 122 121 120 120 119 119 118 117 116 114 113
342 344 345 344 343 343 343 343 341 340 339 339 338 336 334 332 329 326 320 313 304 297 294 296 298 298 293 283 277 276 280 290 320 326 322 318 322 325 287 242 198 167 140 119 109 109 110 115 111 95 79 77 76 76 77 83 92 102 109 110 111 112 112 111 111 111 111 113 114 114 115 116 117 117 117 117 118 118 118 118 118 119 120 119 117 116
343 346 348 347 346 345 345 344 344 343 342 341 339 336 333 330 327 324 320 313 304 293 285 286 289 292 293 286 280 276 275 276 304 319 320 317 330 352 312 268 211 167 131 115 106 102 101 109 114 111 98 82 73 68 68 75 84 94 102 106 109 111 111 110 109 109 109 109 109 109 110 111 111 111 111 112 112 113 114 114 114 115 115 118 119 119
347 350 352 351 350 348 347 347 346 346 345 342 340 336 333 329 325 321 318 313 305 295 283 275 273 275 279 281 282 283 281 285 304 316 313 308 323 15 327 278 223 170 137 128 122 117 112 114 117 117 112 99 82 68 60 69 79 87 91 96 101 105 108 110 111 112 111 109 108 107 108 108 107 106 106 107 107 107 107 108 108 109 108 110 113 115
351 353 354 354 352 351 349 348 347 346 345 342 339 335 332 328 324 320 315 311 306 302 296 285 273 264 259 263 267 272 278 285 296 302 299 289 288 76 16 284 239 183 149 136 130 126 123 120 117 115 112 108 99 83 63 68 77 84 87 89 92 97 102 107 111 113 113 111 110 109 109 108 106 104 104 103 103 103 102 102 102 102 102 102 102 103
356 356 355 354 353 350 348 347 346 346 344 341 337 335 332 328 323 319 314 310 307 305 306 300 289 275 265 259 258 262 269 277 282 284 282 270 258 96 68 308 268 211 168 142 134 131 127 124 120 115 110 109 109 107 101 92 87 87 87 88 91 94 97 102 108 112 113 112 112 111 111 110 108 107 105 103 101 99 98 98 97 97 97 97 97 98
359 357 355 354 352 350 347 346 345 344 342 339 335 333 330 326 322 318 314 311 311 312 315 312 303 290 281 274 267 263 263 264 266 266 264 255 240 83 56 353 318 277 183 145 138 135 133 130 127 123 114 106 106 111 118 114 105 98 93 90 89 91 94 99 105 110 112 112 111 110 109 109 108 107 106 103 100 97 95 93 93 94 95 94 95 95
359 357 354 353 351 348 345 344 342 340 338 335 333 332 329 326 323 320 317 316 319 323 325 320 311 299 289 283 278 275 274 267 260 254 247 237 151 74 54 17 354 350 125 135 137 137 136 133 131 129 124 117 112 110 110 111 110 109 107 97 88 84 86 93 99 106 111 112 110 108 105 104 104 103 103 101 99 98 97 96 95 95 96 96 96 96
357 355 353 351 348 345 343 341 339 336 335 333 333 333 333 332 330 328 327 330 335 337 334 326 316 304 294 292 296 304 316 311 297 272 237 172 87 71 59 33 16 23 76 110 123 127 128 127 125 125 125 124 123 121 116 114 117 119 118 110 100 90 86 86 89 95 102 107 108 107 105 102 100 98 98 96 96 97 100 101 101 101 102 105 105 104
356 354 351 347 344 341 339 338 337 336 336 337 338 340 341 340 339 339 340 344 347 348 344 336 328 318 307 312 328 346 359 354 346 340 111 84 79 74 64 42 22 21 61 84 92 100 112 119 121 122 121 122 121 120 119 119 120 120 117 113 111 106 96 88 88 92 96 100 104 106 107 104 100 97 95 92 91 91 96 101 102 101 97 98 104 109
355 352 348 343 340 339 338 338 339 340 341 343 345 346 346 345 344 345 347 350 351 350 347 341 335 330 327 337 356 9 14 6 2 17 65 76 77 74 66 50 31 23 54 79 84 89 102 116 122 124 126 126 123 119 115 113 111 110 109 112 111 106 94 88 90 98 101 101 102 104 105 103 100 98 96 94 91 89 88 91 94 95 95 91 90 92
352 348 343 340 338 336 337 340 343 345 348 350 351 351 349 348 348 350 353 353 352 349 344 338 333 329 331 346 5 15 17 11 14 32 60 73 76 75 68 55 40 30 45 78 88 92 95 102 110 118 125 126 124 121 118 114 110 109 111 118 119 115 107 102 98 97 97 98 98 99 99 99 98 96 93 91 88 85 82 80 80 81 84 87 86 82
348 345 342 341 340 341 344 348 350 350 351 353 353 352 350 350 352 354 357 355 352 348 345 338 331 330 339 355 8 17 18 16 23 36 53 66 72 73 69 57 44 33 32 57 83 96 95 91 94 103 113 118 119 119 119 119 117 115 113 113 113 112 114 118 115 107 98 96 95 96 98 101 100 96 90 86 82 79 77 76 74 72 72 75 79 81
349 348 347 346 347 349 352 352 351 350 352 354 355 354 353 353 356 359 1 356 352 350 348 342 340 343 355 360 5 12 18 23 30 38 49 62 69 72 70 62 50 38 33 39 53 76 94 97 99 101 104 110 114 117 120 120 118 113 105 99 95 94 97 103 107 109 107 103 101 101 104 106 103 98 91 85 79 75 74 75 76 75 74 75 78 82
354 353 351 350 351 352 353 352 351 351 352 355 357 357 355 356 358 0 1 357 354 351 350 350 354 0 3 358 357 3 16 29 35 40 46 57 65 69 70 65 58 48 42 41 44 50 65 84 99 107 109 106 105 108 114 118 116 112 107 105 103 101 98 98 100 104 107 107 107 107 109 105 99 95 91 88 82 76 71 73 76 79 81 82 84 86
358 356 353 352 352 351 351 351 351 352 354 356 357 358 358 357 359 0 1 359 356 354 353 356 3 8 8 2 360 2 14 30 39 45 49 58 68 75 78 73 66 58 53 52 52 52 52 55 66 86 105 107 105 103 102 108 112 115 117 117 114 111 107 106 106 106 105 105 108 111 111 103 97 94 94 93 88 83 75 73 74 78 83 88 90 92
358 357 354 352 352 352 351 352 352 353 354 355 356 357 359 1 2 3 1 359 358 358 359 2 6 9 10 7 3 3 10 26 39 48 51 60 72 82 87 85 79 70 61 60 60 60 58 53 49 49 61 88 103 108 108 106 108 112 117 117 114 111 108 108 108 107 104 104 108 111 111 106 105 105 104 100 95 90 86 81 77 75 78 87 92 95
359 358 355 353 354 354 353 353 353 354 354 355 355 356 359 2 5 6 2 0 1 2 4 5 7 10 12 8 4 3 8 18 30 41 46 52 70 88 97 97 93 85 73 66 65 65 64 59 53 47 41 50 74 98 106 105 105 106 108 110 109 108 106 106 107 107 105 104 104 103 101 101 105 108 109 104 100 98 94 88 83 78 76 82 88 93
1 0 357 355 355 356 354 354 354 355 354 355 355 356 357 1 5 6 4 3 4 6 6 6 8 12 15 10 7 5 8 12 21 28 29 27 47 84 104 106 103 99 88 76 69 68 69 63 55 47 40 38 43 62 97 103 103 102 101 102 104 106 106 106 106 106 105 104 103 101 100 99 100 102 103 102 101 100 96 91 86 81 78 82 86 90
1 1 359 357 357 357 355 355 355 356 355 355 356 356 357 2 5 7 7 7 7 7 7 7 11 15 17 14 11 9 9 13 19 22 17 5 8 51 102 111 111 109 104 94 82 74 76 75 64 49 37 31 30 33 64 90 101 102 98 99 101 103 103 104 104 104 104 104 104 104 103 102 101 102 103 103 102 100 96 93 90 86 82 84 88 91